Skip Page Navigation
NASA JPL Caltech
NASA Logo - Jet Propulsion Laboratory + View the NASA Portal
+ Near-Earth Object (NEO) Program
Search JPL
JPL Home Earth Solar System Stars & Galaxies Technology
JPL Solar System Dynamics
BODIES ORBITS EPHEMERIDES TOOLS PHYSICAL DATA DISCOVERY FAQ SITE MAP
JPL Small-Body Database Browser
Search: [ help ]  
175548 Sudzius (2006 SG285)
Classification: Main-belt Asteroid          SPK-ID: 2175548
Ephemeris | Orbit Diagram | Orbital Elements | Physical Parameters | Discovery Circumstances ]

[ show orbit diagram ]
Orbital Elements at Epoch 2456400.5 (2013-Apr-18.0) TDB
Reference: JPL 1 (heliocentric ecliptic J2000)
 Element Value Uncertainty (1-sigma)   Units 
e .0706468185840322 1.1577e-07  
a 2.646118298591122 5.2822e-08 AU
q 2.459178459198668 3.2628e-07 AU
i 1.285846053639445 1.0659e-05 deg
node 229.1263590531485 0.00041124 deg
peri 123.5968933159802 0.00041528 deg
M 214.4908453730232 6.6777e-05 deg
tp 2457035.977425995264
(2015-Jan-13.47742600)
0.00029994 JED
period 1572.216359477643
4.30
4.7077e-05
1.289e-07
d
yr
n .2289761188591163 6.8563e-09 deg/d
Q 2.833058137983577 5.6554e-08 AU
  Orbit Determination Parameters
   # obs. used (total)      201  
   data-arc span      6650 days (18.21 yr)  
   first obs. used      1995-02-03  
   last obs. used      2013-04-19  
   planetary ephem.      DE405  
   SB-pert. ephem.      SB405-CPV-2  
   condition code      0  
   fit RMS      .64376  
   data source      ORB  
   producer      Otto Matic  
   solution date      2013-Apr-29 20:24:25  

Additional Information
 Earth MOID = 1.45335 AU 
 T_jup = 3.389 
[ show covariance matrix ]

Ephemeris | Orbit Diagram | Orbital Elements | Physical Parameters | Discovery Circumstances ]

Physical Parameter Table
Parameter Symbol Value Units Sigma Reference Notes
absolute magnitude H 16.312 mag .49002 1 autocmod 2.5c

175548 Sudzius           Discovered 2006 Sept. 27 by K. Cernis and J. Zdanavicius at the Moletai Astronomical Observatory.
Jokubas Sudzius (b. 1946) is an associate professor at the Astronomical Observatory of Vilnius University, where he was director (1988-2009). Previously director of the Maidanak station (1978-1988) in Uzbekistan, he is an expert in the fields of interstellar extinction, Galactic structure and stellar photometry.
NOTE: some special characters may not display properly (any characters within {} are an attempt to place the proper accent above a character)
Reference: 20100330/MPCPages.arcLast Updated: 2010-04-05
Ephemeris | Orbit Diagram | Orbital Elements | Physical Parameters | Discovery Circumstances ]
ABOUT SSD CREDITS/AWARDS PRIVACY/COPYRIGHT GLOSSARY LINKS
FirstGov 2013-May-23 18:52 UT
(server date/time)  
NASA Home Page
Site Manager:   Donald K. Yeomans
Webmaster  Alan B. Chamberlin